Temperature
18 16 16 17 17 18 17 17 17 17 18 18 17 17 17 18 18 18 18 18 18 19 19 19 18 18 18 18 18 17 17 17 17 16 16 16 16 15 15 15 15 15 15 15
16 16 17 17 18 18 17 17 17 17 18 18 17 17 17 18 18 18 18 18 19 19 19 19 18 18 18 18 18 17 17 17 17 16 16 16 16 15 15 15 15 15 15 15
17 17 18 18 18 18 17 17 17 17 17 18 18 17 17 18 18 18 18 19 19 19 19 19 19 18 18 18 18 18 17 17 17 16 16 16 16 16 15 15 15 15 15 15
17 17 18 18 18 18 17 18 18 18 17 16 17 16 17 17 17 17 18 18 19 19 19 19 19 19 18 18 18 18 17 17 17 17 16 16 16 16 16 15 15 15 15 15
17 17 17 17 17 18 17 18 17 17 17 16 17 17 16 16 17 17 18 18 19 19 19 19 19 19 19 18 18 18 17 17 17 17 17 16 16 16 16 15 15 15 15 15
17 17 17 17 17 17 17 17 16 15 16 16 17 17 16 16 17 18 18 18 19 19 19 19 19 19 19 18 18 18 18 17 17 17 17 16 16 16 16 15 15 15 15 15
17 17 17 17 17 17 17 16 16 16 15 16 16 17 17 17 18 18 18 19 19 20 19 19 19 19 19 18 18 18 18 18 17 17 17 17 16 16 16 16 15 15 15 15
17 16 17 17 17 17 16 16 16 16 16 16 16 16 17 18 19 19 19 19 19 19 20 20 20 19 19 19 18 18 18 18 18 17 17 17 17 16 16 16 16 15 15 15
16 17 18 18 17 17 16 15 15 15 16 16 16 16 17 18 18 18 19 19 19 19 20 20 20 20 19 19 19 19 18 18 18 17 17 17 17 16 16 16 16 15 15 15
17 17 17 17 17 17 16 15 14 15 16 16 17 17 17 18 18 18 17 18 19 19 20 20 20 20 20 19 19 19 18 18 18 18 17 17 17 17 16 16 16 16 15 15
17 16 17 17 17 17 16 16 15 14 15 15 16 17 18 18 18 18 18 19 19 20 20 20 20 20 20 19 19 19 19 18 18 18 18 17 17 17 16 16 16 16 15 15
16 15 16 17 17 17 17 16 15 15 15 15 15 16 19 18 18 18 19 19 20 20 20 20 20 20 20 19 19 19 19 18 18 18 18 17 17 17 17 16 16 16 16 15
16 15 16 17 16 17 17 16 16 15 14 14 15 17 18 18 18 19 19 19 20 20 20 20 20 20 20 19 19 19 19 19 18 18 18 17 17 17 17 16 16 16 16 15
17 15 16 17 17 16 17 17 16 15 15 15 16 17 18 18 18 18 19 20 20 20 20 20 20 20 20 20 19 19 19 19 18 18 18 18 17 17 17 16 16 16 16 15
17 16 16 17 17 17 17 17 16 16 16 16 17 17 18 18 18 19 19 20 19 20 20 20 20 20 20 20 20 19 19 19 18 18 18 18 17 17 17 16 16 16 16 15
16 16 17 17 17 17 17 18 17 17 17 16 17 17 18 19 19 19 19 19 19 20 20 20 20 20 20 20 20 20 19 19 19 18 18 18 17 17 17 17 16 16 16 15
15 16 16 16 17 18 17 18 17 17 17 17 17 18 18 18 18 19 20 20 20 20 20 20 20 20 20 20 20 20 20 19 19 18 18 18 17 17 17 17 16 16 16 15
15 15 14 15 17 17 18 18 18 18 18 17 18 18 18 18 19 20 20 20 21 21 21 21 21 21 21 20 20 20 20 19 19 18 18 18 17 17 17 17 16 16 16 16
15 15 14 14 16 17 18 19 18 18 18 18 18 18 19 19 19 19 20 21 21 21 21 21 21 21 21 20 20 20 19 19 19 19 18 18 18 17 17 17 16 16 16 16
14 14 14 14 17 17 18 19 19 19 18 19 18 18 18 18 17 18 21 21 22 21 21 21 21 21 20 20 20 20 19 19 19 19 18 18 18 17 17 17 16 16 16 15
15 14 14 14 16 16 17 18 19 18 18 20 19 19 19 18 19 20 21 21 21 21 21 21 21 21 20 20 20 19 19 19 19 19 18 18 18 17 17 16 16 16 15 15
15 14 14 14 15 16 17 17 17 18 20 20 20 20 20 20 20 20 21 21 21 21 21 21 21 20 20 20 20 20 19 19 19 18 18 18 17 17 17 16 16 15 15 15
14 15 14 15 16 17 17 18 19 20 20 20 20 20 20 20 20 20 21 21 21 21 21 20 20 20 20 19 19 19 19 19 18 18 18 17 17 17 16 16 16 15 15 15
14 13 13 14 15 16 18 18 19 20 20 20 20 20 20 20 20 20 20 20 20 20 20 20 20 20 19 19 19 19 19 18 18 18 17 17 17 16 16 16 15 15 15 15
14 13 13 14 15 16 18 19 19 20 20 20 20 20 20 20 20 20 20 20 20 20 19 19 19 19 19 19 19 18 18 18 18 17 17 17 16 16 16 16 15 15 15 15
12 13 14 15 16 16 18 19 19 19 19 20 20 20 19 20 19 19 19 19 19 19 19 19 19 18 18 18 18 18 18 17 17 17 17 17 16 16 16 15 15 15 14 14
Wind_Speed
4 5 2 2 2 3 5 4 2 1 0 2 3 3 5 6 5 6 5 6 6 6 4 4 5 6 7 6 6 6 7 5 5 3 3 3 3 3 4 6 8 8 9 9
5 1 2 2 2 5 4 4 2 1 1 2 2 2 3 5 6 7 8 7 7 6 4 5 5 5 6 6 6 6 6 6 4 3 3 3 2 2 2 4 8 9 8 8
3 2 1 4 4 4 2 4 3 2 2 3 3 1 2 3 4 5 6 7 7 9 9 8 7 6 6 6 7 7 6 5 5 4 4 4 4 4 4 4 4 7 8 9
1 1 2 3 2 4 2 3 4 4 3 0 1 2 5 4 5 7 8 8 8 8 8 8 8 7 7 7 6 6 6 6 5 5 5 5 3 2 1 1 2 5 8 8
1 1 3 2 2 4 3 3 4 4 4 1 0 1 5 3 7 10 10 10 10 10 10 10 10 9 7 7 7 6 6 5 5 5 6 6 4 2 1 2 4 5 5 7
1 0 1 2 1 2 4 5 6 5 3 0 2 3 5 5 10 9 10 10 11 10 10 9 8 7 7 6 6 7 7 5 4 5 5 6 6 5 4 3 3 3 3 4
2 2 1 1 4 3 4 5 3 3 2 3 2 3 8 8 8 11 12 12 11 11 10 10 10 10 9 8 8 7 8 6 5 6 5 6 6 6 5 3 2 2 2 2
1 2 2 1 3 4 3 5 5 4 3 3 1 5 7 7 6 7 9 9 9 10 11 11 12 11 11 10 9 9 8 7 6 6 5 5 5 4 3 3 3 2 1 1
5 3 1 1 2 7 5 3 4 5 1 1 4 5 7 2 1 3 6 8 10 11 12 12 11 11 11 11 10 10 9 7 7 7 6 5 5 5 4 3 3 2 1 2
6 2 1 1 4 4 4 7 5 4 3 2 4 4 4 4 3 3 6 10 11 11 11 11 11 11 10 9 9 8 8 8 7 7 6 5 5 5 5 4 4 3 2 3
4 3 1 1 3 5 4 4 4 3 3 3 2 5 5 7 6 7 9 10 11 12 12 12 11 10 9 8 8 8 8 7 7 7 6 6 5 5 5 4 4 4 3 3
4 4 1 3 2 2 4 5 6 4 3 3 2 6 6 6 6 6 7 8 9 10 10 10 10 9 9 10 9 9 9 8 7 7 7 6 6 6 5 5 4 4 4 3
7 5 3 3 3 0 2 3 4 5 4 3 3 6 3 2 2 3 5 7 7 8 9 8 9 10 10 10 10 9 9 9 7 7 7 7 6 7 6 5 5 4 4 4
6 5 5 6 5 5 3 4 6 5 4 4 7 8 9 6 4 3 4 6 7 8 9 9 10 10 10 10 10 10 9 8 8 8 8 8 8 7 7 6 5 5 5 5
5 4 4 5 3 4 5 6 8 7 7 7 7 8 10 7 5 5 4 5 7 8 9 10 11 11 10 10 9 9 9 9 9 9 9 8 7 7 6 6 6 5 5 5
4 4 3 1 2 3 3 6 8 8 7 7 7 9 8 6 3 2 4 6 8 9 11 11 11 11 12 12 12 10 10 10 9 10 9 7 7 7 7 7 6 6 5 5
4 6 4 2 2 1 4 7 8 6 6 7 9 9 5 2 3 4 5 7 8 9 9 11 11 12 13 13 12 13 11 10 10 10 9 8 9 8 8 7 7 7 6 5
7 6 4 2 2 3 7 4 6 6 6 7 7 6 5 5 4 3 3 6 8 8 8 9 9 10 10 10 10 10 10 11 11 10 9 9 9 9 8 8 7 6 5 5
5 7 4 3 2 5 6 3 4 5 5 5 8 6 4 1 2 3 2 4 7 7 8 8 9 8 9 10 11 10 10 10 10 10 10 10 11 10 9 9 8 6 5 5
5 5 5 4 3 4 7 4 2 3 3 4 6 6 4 4 1 5 4 2 2 3 3 5 5 6 8 8 10 11 11 11 12 12 12 11 11 11 11 11 8 5 5 6
4 3 4 4 4 6 7 3 4 4 5 3 4 5 6 6 5 4 2 1 1 1 1 3 5 6 7 8 11 11 10 12 12 10 9 10 10 11 10 8 7 6 6 6
7 6 5 5 4 7 3 4 6 6 3 1 2 3 5 4 2 1 0 1 2 2 2 4 5 4 4 8 10 10 11 10 8 9 9 9 9 9 8 8 7 7 8 7
6 7 6 7 7 5 3 5 4 3 3 2 2 2 3 2 1 0 1 1 2 2 2 3 4 4 4 6 8 9 8 7 9 9 9 8 8 8 8 9 9 7 7 6
3 2 4 2 5 4 3 2 2 2 2 1 2 3 4 3 2 2 2 2 2 2 2 2 4 4 3 4 5 6 6 7 9 9 8 8 8 7 7 7 8 8 8 7
5 5 4 3 4 2 3 2 2 1 2 3 3 3 2 3 2 2 2 2 1 2 1 2 3 4 3 3 4 4 5 8 8 7 7 7 7 8 7 7 7 9 9 10
4 6 7 6 6 5 3 2 1 3 3 3 4 4 3 2 2 3 2 2 2 2 2 3 2 2 2 3 3 3 5 7 8 6 6 6 6 6 6 6 4 6 6 8
Wind_Direction
41 68 103 195 173 154 140 135 159 253 256 121 161 182 194 174 179 182 181 177 181 195 188 155 154 138 128 127 129 133 130 130 121 101 92 78 50 23 26 33 39 47 55 59
48 40 231 154 130 125 122 132 145 17 52 121 143 201 204 180 192 188 182 187 188 184 163 166 155 147 148 147 146 145 145 144 137 124 119 112 103 59 35 26 37 41 49 55
140 245 190 133 133 131 136 166 176 158 67 62 103 330 239 214 191 187 184 186 190 189 180 178 171 169 156 160 165 162 157 148 139 128 108 84 58 40 29 21 17 21 43 57
75 284 146 132 155 147 198 206 164 138 116 32 129 222 257 212 203 202 200 192 192 192 185 182 177 174 174 177 166 157 154 148 145 140 134 129 119 107 54 21 20 26 43 52
332 135 134 156 213 158 173 101 113 121 125 81 50 189 274 193 214 218 210 203 199 193 187 186 184 181 177 169 162 156 148 147 148 144 141 129 118 119 88 57 51 38 34 43
278 219 160 179 73 122 126 84 68 60 77 315 232 193 268 218 213 212 208 204 200 195 188 187 180 167 165 160 156 151 149 153 148 143 143 142 139 136 117 86 66 41 32 30
2 355 332 135 87 44 84 92 58 20 26 254 253 214 251 237 216 206 203 203 197 189 182 178 173 173 172 170 169 161 158 161 157 152 155 158 154 150 146 141 125 97 54 37
139 289 248 186 156 151 133 130 153 181 212 273 264 242 258 258 232 209 200 193 185 183 183 183 183 181 178 178 175 169 169 169 167 165 165 160 154 148 149 150 144 137 122 93
174 233 266 157 138 136 133 143 152 127 135 277 272 283 302 314 231 196 184 181 188 188 186 186 184 183 181 181 183 180 174 171 174 172 161 157 157 154 155 151 139 135 132 110
158 164 338 98 88 50 140 143 112 121 145 267 292 277 259 279 268 218 194 193 195 190 186 185 184 186 185 184 181 177 174 175 174 170 168 166 163 161 155 145 145 145 137 108
134 134 1 62 172 175 128 118 115 118 148 163 278 278 231 226 227 217 210 203 196 191 189 188 187 184 178 172 172 176 175 171 172 171 167 157 159 155 151 152 157 154 140 129
148 125 176 261 277 183 158 162 149 152 199 181 204 272 267 235 234 222 213 205 198 192 189 186 181 174 174 177 178 180 178 179 180 171 163 163 158 153 156 162 162 153 146 134
148 125 95 358 353 50 153 171 162 135 130 166 197 267 300 325 284 224 208 199 190 186 183 176 174 180 184 184 183 183 184 184 174 164 161 159 161 163 167 168 162 154 145 134
130 126 164 193 215 189 189 191 172 149 169 206 226 257 292 307 299 271 219 196 184 184 185 181 184 188 188 188 187 186 188 180 170 166 167 171 175 174 170 163 159 156 149 144
127 157 199 223 210 176 200 200 187 194 199 205 238 246 264 267 253 245 219 191 184 186 191 192 192 193 190 188 187 186 185 178 171 169 176 183 176 165 159 158 158 153 150 152
128 156 163 280 237 205 239 228 206 213 218 228 253 269 263 259 234 233 215 197 197 199 199 199 195 192 192 192 190 186 185 180 172 175 184 176 162 160 164 163 155 150 148 143
145 138 132 257 309 78 271 233 205 205 205 197 225 244 257 262 237 230 222 209 211 209 203 199 197 198 198 195 189 188 185 172 174 179 177 171 167 168 170 164 155 159 161 153
143 135 137 149 98 236 248 236 198 204 231 216 227 247 231 226 241 251 232 213 217 211 205 203 200 200 197 187 183 179 167 170 177 179 177 174 171 171 165 160 165 166 160 162
141 135 125 131 177 276 291 257 183 194 260 229 222 239 243 204 30 329 268 220 219 214 207 205 200 193 184 181 176 168 170 172 178 184 184 181 175 170 167 172 174 169 164 169
78 107 123 136 158 234 253 268 197 131 292 261 199 212 198 124 110 275 281 249 232 223 202 192 178 168 174 177 165 166 175 178 190 193 189 180 175 175 179 181 174 165 166 173
107 100 138 159 197 257 259 268 121 146 241 270 186 190 169 179 204 244 276 251 174 154 148 146 149 165 180 168 163 173 179 195 199 186 175 172 177 181 180 173 168 161 159 156
165 159 172 153 181 249 267 141 175 214 234 215 186 174 171 195 230 291 340 65 65 74 98 131 143 158 161 163 167 178 195 199 175 165 168 175 177 178 175 166 167 163 160 162
182 183 178 182 205 237 227 219 238 197 195 212 178 178 157 158 180 137 71 77 76 81 111 136 145 142 146 163 173 188 200 171 160 164 172 175 172 174 170 172 171 165 169 175
232 148 141 206 259 261 275 274 274 202 197 194 153 143 134 139 141 104 77 64 71 75 110 129 129 135 155 175 180 189 176 161 161 170 174 170 171 173 173 176 176 177 183 188
197 158 151 210 261 311 321 288 253 118 95 89 87 94 112 118 105 103 92 80 83 79 85 119 142 159 177 174 179 175 155 155 164 172 173 174 178 178 180 187 193 194 201 196
193 171 169 206 212 180 225 262 153 115 109 121 105 72 60 101 120 91 81 74 88 90 96 104 115 132 155 149 160 166 159 159 161 169 177 180 179 180 182 186 204 224 216 214
Height
1520 1525 1529 1528 1527 1528 1531 1536 1539 1537 1533 1535 1537 1538 1538 1538 1540 1541 1542 1544 1545 1548 1550 1552 1555 1557 1559 1560 1562 1563 1564 1565 1566 1566 1566 1566 1565 1565 1564 1564 1563 1562 1561 1561
1526 1529 1525 1524 1525 1527 1532 1537 1539 1537 1533 1535 1539 1539 1537 1537 1538 1539 1541 1543 1545 1547 1550 1552 1555 1557 1559 1560 1562 1564 1565 1566 1567 1567 1567 1567 1567 1566 1566 1565 1565 1564 1563 1562
1527 1527 1524 1525 1528 1531 1533 1536 1537 1538 1536 1536 1539 1543 1539 1537 1537 1539 1540 1542 1544 1546 1548 1551 1554 1556 1558 1560 1562 1564 1565 1567 1567 1568 1568 1568 1568 1568 1567 1567 1566 1566 1565 1565
1526 1525 1525 1526 1529 1530 1536 1531 1532 1535 1542 1547 1543 1553 1541 1537 1537 1537 1538 1540 1542 1544 1547 1550 1552 1555 1558 1560 1562 1564 1566 1567 1568 1569 1569 1569 1569 1569 1569 1568 1568 1568 1567 1567
1528 1525 1526 1528 1528 1528 1532 1529 1532 1536 1542 1548 1546 1551 1545 1537 1537 1534 1534 1536 1539 1542 1545 1548 1551 1554 1557 1560 1562 1564 1566 1567 1568 1569 1570 1570 1570 1570 1570 1570 1570 1569 1569 1568
1526 1525 1525 1526 1525 1527 1529 1532 1537 1541 1546 1555 1548 1551 1547 1538 1531 1529 1530 1533 1536 1539 1543 1546 1550 1553 1556 1559 1561 1563 1565 1567 1568 1569 1570 1571 1571 1571 1571 1571 1571 1571 1570 1570
1529 1526 1525 1525 1528 1529 1531 1541 1554 1556 1560 1558 1547 1547 1542 1525 1522 1523 1525 1528 1532 1536 1540 1543 1547 1550 1554 1557 1560 1562 1564 1566 1568 1569 1570 1571 1572 1572 1572 1572 1572 1572 1572 1571
1535 1537 1527 1525 1527 1531 1534 1539 1554 1562 1563 1558 1548 1547 1532 1519 1518 1519 1521 1524 1528 1532 1536 1540 1544 1548 1551 1555 1558 1561 1563 1565 1567 1568 1570 1571 1572 1573 1573 1573 1573 1573 1573 1573
1534 1534 1524 1523 1524 1528 1535 1540 1540 1551 1553 1556 1551 1541 1526 1517 1516 1517 1519 1522 1525 1529 1533 1537 1541 1545 1549 1553 1556 1559 1562 1564 1566 1568 1570 1571 1572 1573 1573 1574 1574 1574 1574 1574
1525 1532 1526 1524 1525 1528 1530 1535 1544 1551 1558 1560 1550 1543 1536 1522 1518 1517 1517 1519 1522 1526 1530 1534 1538 1543 1547 1551 1555 1558 1560 1563 1565 1567 1569 1570 1572 1573 1573 1574 1574 1575 1575 1575
1521 1530 1530 1527 1528 1531 1533 1537 1541 1548 1550 1558 1557 1545 1520 1518 1515 1514 1514 1516 1519 1523 1526 1531 1535 1540 1545 1549 1553 1556 1559 1561 1563 1566 1568 1569 1571 1572 1573 1574 1574 1575 1575 1575
1522 1530 1536 1530 1525 1524 1527 1531 1538 1547 1551 1551 1553 1543 1512 1512 1511 1511 1512 1514 1517 1521 1524 1529 1533 1538 1542 1546 1550 1553 1556 1559 1562 1564 1566 1568 1570 1571 1572 1573 1574 1575 1575 1576
1519 1529 1539 1538 1536 1529 1528 1529 1532 1538 1546 1551 1551 1538 1511 1510 1510 1510 1511 1513 1516 1519 1523 1527 1531 1535 1539 1543 1547 1551 1554 1557 1560 1562 1565 1567 1569 1570 1572 1573 1574 1575 1575 1576
1514 1525 1532 1538 1533 1528 1528 1528 1530 1535 1544 1545 1541 1531 1516 1512 1510 1510 1510 1511 1514 1517 1520 1524 1527 1531 1536 1540 1544 1547 1551 1554 1557 1560 1562 1565 1567 1569 1570 1572 1573 1574 1575 1575
1512 1522 1522 1522 1520 1521 1522 1523 1526 1530 1531 1535 1529 1525 1515 1510 1509 1508 1509 1510 1512 1515 1518 1520 1524 1528 1532 1536 1540 1544 1548 1551 1554 1557 1560 1562 1565 1567 1569 1570 1572 1573 1574 1575
1512 1519 1521 1522 1518 1519 1521 1519 1521 1523 1523 1524 1523 1519 1508 1507 1507 1508 1508 1509 1510 1512 1514 1517 1520 1524 1528 1532 1536 1540 1544 1548 1551 1554 1557 1560 1562 1565 1567 1569 1570 1572 1573 1574
1514 1519 1525 1528 1521 1520 1525 1515 1516 1517 1514 1516 1518 1512 1505 1506 1506 1506 1506 1506 1507 1509 1511 1514 1517 1520 1524 1528 1532 1536 1540 1544 1548 1551 1554 1557 1560 1562 1564 1566 1568 1570 1571 1572
1511 1518 1525 1528 1526 1532 1518 1505 1506 1509 1508 1507 1506 1504 1503 1503 1504 1504 1504 1505 1505 1507 1509 1512 1514 1518 1521 1525 1529 1533 1537 1540 1544 1547 1550 1553 1556 1559 1561 1563 1565 1567 1569 1570
1505 1514 1525 1531 1531 1525 1511 1504 1505 1507 1507 1502 1502 1501 1501 1502 1503 1503 1503 1503 1504 1505 1507 1510 1512 1515 1519 1522 1526 1529 1533 1536 1540 1543 1546 1549 1552 1555 1558 1560 1562 1564 1566 1567
1507 1510 1521 1528 1528 1529 1512 1501 1500 1504 1508 1498 1498 1499 1500 1502 1507 1505 1502 1502 1503 1504 1506 1508 1511 1513 1516 1519 1523 1526 1529 1532 1535 1539 1542 1546 1549 1551 1554 1556 1559 1561 1563 1564
1513 1516 1521 1526 1526 1519 1503 1499 1500 1513 1509 1496 1496 1496 1498 1500 1501 1502 1501 1501 1502 1503 1505 1507 1509 1511 1514 1517 1520 1522 1525 1528 1532 1536 1539 1542 1545 1548 1551 1553 1555 1557 1559 1561
1509 1515 1520 1523 1524 1519 1498 1499 1502 1500 1495 1495 1495 1496 1497 1498 1499 1500 1500 1501 1501 1502 1504 1506 1507 1509 1512 1514 1517 1519 1522 1525 1529 1532 1535 1538 1541 1544 1547 1549 1551 1554 1555 1557
1501 1502 1505 1508 1508 1498 1496 1495 1494 1494 1494 1494 1494 1496 1497 1497 1498 1499 1499 1500 1501 1502 1503 1505 1506 1508 1510 1512 1514 1517 1519 1523 1526 1528 1531 1535 1538 1540 1543 1545 1547 1549 1551 1552
1497 1496 1499 1502 1498 1494 1493 1493 1493 1493 1493 1494 1494 1495 1496 1497 1498 1498 1499 1499 1500 1501 1503 1504 1505 1506 1508 1510 1512 1515 1517 1520 1522 1525 1528 1531 1534 1536 1539 1541 1543 1544 1546 1547
1492 1494 1497 1498 1494 1492 1492 1491 1491 1492 1492 1493 1494 1495 1496 1497 1497 1498 1499 1499 1500 1501 1502 1503 1504 1505 1507 1509 1510 1513 1515 1517 1519 1522 1524 1527 1530 1532 1534 1536 1538 1540 1541 1543
1488 1490 1493 1493 1489 1490 1491 1491 1491 1491 1491 1492 1494 1495 1496 1496 1497 1498 1498 1499 1500 1501 1502 1502 1503 1504 1506 1507 1509 1510 1512 1514 1517 1519 1521 1523 1526 1528 1530 1531 1533 1535 1537 1538